• In Schweiz
  • Länderverzeichnis
  • Für 7 Tage
  • Wassertemperatur
  • Satellitenkarten
  • Wetterkarte
  • Widgets
  • user-avatar
    Anmelden

    Stündliche Wetter Christchurch

    Heute, 19 Juli, Donnerstag

    Zeit Temperatur Niederschläge Wind Luftdruck Luftfeuchtigkeit
    00:00 +5°C° 0 mm 2 m/S 757 mmHg 79%
    01:00 +5°C° 0 mm 2 m/S 757 mmHg 79%
    02:00 +5°C° 0 mm 2 m/S 757 mmHg 80%
    03:00 +4°C° 0 mm 3 m/S 757 mmHg 80%
    04:00 +5°C° 0 mm 2 m/S 757 mmHg 81%
    05:00 +5°C° 0 mm 2 m/S 757 mmHg 82%
    06:00 +4°C° 0 mm 2 m/S 757 mmHg 86%
    07:00 +5°C° 0 mm 2 m/S 757 mmHg 85%
    08:00 +5°C° 0 mm 2 m/S 757 mmHg 83%
    09:00 +5°C° 0 mm 3 m/S 757 mmHg 81%
    10:00 +8°C° 0 mm 2 m/S 757 mmHg 74%
    11:00 +10°C° 0 mm 2 m/S 757 mmHg 68%
    12:00 +14°C° 0 mm 2 m/S 757 mmHg 60%
    13:00 +14°C° 0 mm 2 m/S 757 mmHg 61%
    14:00 +14°C° 0 mm 2 m/S 757 mmHg 61%
    15:00 +14°C° 0 mm 2 m/S 757 mmHg 62%
    16:00 +12°C° 0 mm 2 m/S 757 mmHg 68%
    17:00 +10°C° 0 mm 2 m/S 757 mmHg 74%
    18:00 +8°C° 0 mm 2 m/S 758 mmHg 81%
    19:00 +7°C° 0 mm 2 m/S 758 mmHg 82%
    20:00 +7°C° 0 mm 2 m/S 758 mmHg 82%
    21:00 +7°C° 0 mm 2 m/S 759 mmHg 83%
    22:00 +7°C° 0 mm 2 m/S 759 mmHg 82%
    23:00 +6°C° 0 mm 2 m/S 759 mmHg 82%

    Morgen, 20 Juli, Freitag

    Zeit Temperatur Niederschläge Wind Luftdruck Luftfeuchtigkeit
    00:00 +7°C° 0 mm 1 m/S 760 mmHg 82%
    01:00 +7°C° 0 mm 1 m/S 760 mmHg 82%
    02:00 +7°C° 0 mm 1 m/S 760 mmHg 81%
    03:00 +6°C° 0 mm 2 m/S 760 mmHg 81%
    04:00 +6°C° 0 mm 2 m/S 760 mmHg 81%
    05:00 +6°C° 0 mm 2 m/S 760 mmHg 82%
    06:00 +6°C° 0 mm 2 m/S 760 mmHg 82%
    07:00 +6°C° 0 mm 2 m/S 760 mmHg 81%
    08:00 +6°C° 0 mm 2 m/S 760 mmHg 80%
    09:00 +7°C° 0 mm 2 m/S 760 mmHg 80%
    10:00 +9°C° 0 mm 2 m/S 760 mmHg 74%
    11:00 +12°C° 0 mm 2 m/S 760 mmHg 68%
    12:00 +14°C° 0 mm 2 m/S 760 mmHg 62%
    13:00 +14°C° 0 mm 2 m/S 760 mmHg 61%
    14:00 +15°C° 0 mm 2 m/S 759 mmHg 60%
    15:00 +15°C° 0 mm 2 m/S 759 mmHg 59%
    16:00 +13°C° 0 mm 2 m/S 759 mmHg 65%
    17:00 +12°C° 0 mm 2 m/S 759 mmHg 71%
    18:00 +9°C° 0 mm 3 m/S 759 mmHg 77%
    19:00 +8°C° 0 mm 3 m/S 760 mmHg 77%
    20:00 +8°C° 0 mm 3 m/S 760 mmHg 78%
    21:00 +7°C° 0 mm 3 m/S 760 mmHg 78%
    22:00 +7°C° 0 mm 3 m/S 759 mmHg 78%
    23:00 +7°C° 0 mm 3 m/S 759 mmHg 78%

    übermorgen, 21 Juli, Samstag

    Zeit Temperatur Niederschläge Wind Luftdruck Luftfeuchtigkeit
    00:00 +7°C° 0 mm 3 m/S 759 mmHg 78%
    01:00 +7°C° 0 mm 4 m/S 759 mmHg 77%
    02:00 +7°C° 0 mm 4 m/S 758 mmHg 76%
    03:00 +7°C° 0 mm 5 m/S 758 mmHg 76%
    04:00 +7°C° 0 mm 5 m/S 757 mmHg 75%
    05:00 +7°C° 0 mm 6 m/S 757 mmHg 75%
    06:00 +7°C° 0 mm 6 m/S 756 mmHg 75%
    07:00 +8°C° 0 mm 7 m/S 756 mmHg 73%
    08:00 +8°C° 0 mm 7 m/S 755 mmHg 72%
    09:00 +9°C° 0 mm 8 m/S 755 mmHg 71%
    10:00 +10°C° 0 mm 8 m/S 754 mmHg 68%
    11:00 +12°C° 0 mm 9 m/S 753 mmHg 64%
    12:00 +13°C° 0 mm 9 m/S 752 mmHg 60%
    13:00 +13°C° 0 mm 9 m/S 751 mmHg 60%
    14:00 +15°C° 0 mm 9 m/S 749 mmHg 59%
    15:00 +14°C° 0 mm 10 m/S 748 mmHg 59%
    16:00 +14°C° 0 mm 10 m/S 747 mmHg 58%
    17:00 +14°C° 0 mm 10 m/S 747 mmHg 56%
    18:00 +13°C° 0 mm 11 m/S 746 mmHg 55%
    19:00 +13°C° 0,1 mm 9 m/S 746 mmHg 57%
    20:00 +12°C° 0,1 mm 8 m/S 746 mmHg 60%
    21:00 +13°C° 0,1 mm 6 m/S 747 mmHg 63%
    22:00 +11°C° 0 mm 6 m/S 747 mmHg 62%
    23:00 +10°C° 0 mm 6 m/S 748 mmHg 60%

    22 Juli, Sonntag

    Zeit Temperatur Niederschläge Wind Luftdruck Luftfeuchtigkeit
    00:00 +9°C° 0 mm 5 m/S 748 mmHg 59%
    01:00 +8°C° 0 mm 5 m/S 749 mmHg 59%
    02:00 +8°C° 0 mm 4 m/S 749 mmHg 59%
    03:00 +8°C° 0 mm 4 m/S 749 mmHg 60%
    04:00 +8°C° 0 mm 4 m/S 749 mmHg 61%
    05:00 +8°C° 0 mm 3 m/S 750 mmHg 63%
    06:00 +8°C° 0 mm 3 m/S 750 mmHg 65%
    07:00 +8°C° 0 mm 3 m/S 751 mmHg 67%
    08:00 +8°C° 0 mm 3 m/S 751 mmHg 69%
    09:00 +9°C° 0 mm 2 m/S 752 mmHg 71%
    10:00 +10°C° 0 mm 3 m/S 752 mmHg 69%
    11:00 +11°C° 0 mm 3 m/S 752 mmHg 67%
    12:00 +12°C° 0 mm 3 m/S 752 mmHg 65%
    13:00 +12°C° 0 mm 3 m/S 752 mmHg 64%
    14:00 +12°C° 0 mm 3 m/S 752 mmHg 63%
    15:00 +13°C° 0 mm 4 m/S 752 mmHg 62%
    16:00 +11°C° 0,2 mm 4 m/S 753 mmHg 69%
    17:00 +10°C° 0,2 mm 4 m/S 754 mmHg 76%
    18:00 +8°C° 0,2 mm 4 m/S 754 mmHg 83%
    19:00 +7°C° 0,6 mm 4 m/S 755 mmHg 85%
    20:00 +7°C° 0,6 mm 4 m/S 756 mmHg 88%
    21:00 +7°C° 0,6 mm 4 m/S 757 mmHg 91%
    22:00 +6°C° 1,1 mm 4 m/S 757 mmHg 92%
    23:00 +6°C° 1,1 mm 4 m/S 758 mmHg 92%

    23 Juli, Montag

    Zeit Temperatur Niederschläge Wind Luftdruck Luftfeuchtigkeit
    00:00 +6°C° 1,1 mm 4 m/S 759 mmHg 93%
    01:00 +6°C° 0,7 mm 4 m/S 759 mmHg 91%
    02:00 +6°C° 0,7 mm 5 m/S 760 mmHg 90%
    03:00 +5°C° 0,7 mm 5 m/S 761 mmHg 88%
    04:00 +5°C° 0,3 mm 5 m/S 761 mmHg 88%
    05:00 +5°C° 0,3 mm 5 m/S 762 mmHg 87%
    06:00 +5°C° 0,3 mm 5 m/S 763 mmHg 87%
    07:00 +5°C° 0,1 mm 5 m/S 763 mmHg 86%
    08:00 +5°C° 0,1 mm 5 m/S 764 mmHg 86%
    09:00 +5°C° 0,1 mm 4 m/S 765 mmHg 86%
    10:00 +6°C° 0,1 mm 4 m/S 765 mmHg 82%
    11:00 +6°C° 0,1 mm 4 m/S 766 mmHg 79%
    12:00 +7°C° 0,1 mm 4 m/S 766 mmHg 75%
    13:00 +7°C° 0,1 mm 4 m/S 766 mmHg 75%
    14:00 +7°C° 0,1 mm 4 m/S 766 mmHg 74%
    15:00 +7°C° 0,1 mm 4 m/S 767 mmHg 73%
    16:00 +7°C° 0,1 mm 3 m/S 767 mmHg 77%
    17:00 +5°C° 0,1 mm 3 m/S 767 mmHg 80%
    18:00 +4°C° 0,1 mm 3 m/S 768 mmHg 83%
    19:00 +4°C° 0 mm 3 m/S 768 mmHg 84%
    20:00 +4°C° 0 mm 3 m/S 769 mmHg 85%
    21:00 +5°C° 0 mm 2 m/S 769 mmHg 85%
    22:00 +5°C° 0,1 mm 2 m/S 769 mmHg 85%
    23:00 +5°C° 0,1 mm 2 m/S 770 mmHg 85%

    24 Juli, Dienstag

    Zeit Temperatur Niederschläge Wind Luftdruck Luftfeuchtigkeit
    00:00 +5°C° 0,1 mm 2 m/S 770 mmHg 84%
    01:00 +4°C° 0 mm 2 m/S 770 mmHg 85%
    02:00 +4°C° 0 mm 2 m/S 770 mmHg 86%
    03:00 +3°C° 0 mm 2 m/S 770 mmHg 86%
    04:00 +3°C° 0 mm 2 m/S 770 mmHg 87%
    05:00 +3°C° 0 mm 2 m/S 770 mmHg 88%
    06:00 +3°C° 0 mm 2 m/S 770 mmHg 89%
    07:00 +3°C° 0 mm 2 m/S 770 mmHg 88%
    08:00 +3°C° 0 mm 2 m/S 770 mmHg 87%
    09:00 +4°C° 0 mm 2 m/S 770 mmHg 86%
    10:00 +4°C° 0 mm 2 m/S 770 mmHg 82%
    11:00 +6°C° 0 mm 1 m/S 770 mmHg 78%
    12:00 +7°C° 0 mm 1 m/S 770 mmHg 74%
    13:00 +8°C° 0 mm 1 m/S 769 mmHg 73%
    14:00 +7°C° 0 mm 2 m/S 769 mmHg 72%
    15:00 +7°C° 0 mm 2 m/S 768 mmHg 70%
    16:00 +6°C° 0,1 mm 2 m/S 768 mmHg 75%
    17:00 +6°C° 0,1 mm 2 m/S 768 mmHg 79%
    18:00 +5°C° 0,1 mm 2 m/S 768 mmHg 83%
    19:00 +5°C° 0,1 mm 2 m/S 768 mmHg 83%
    20:00 +4°C° 0,1 mm 3 m/S 768 mmHg 84%
    21:00 +4°C° 0,1 mm 3 m/S 768 mmHg 84%
    22:00 +4°C° 0,1 mm 3 m/S 768 mmHg 85%
    23:00 +5°C° 0,1 mm 2 m/S 767 mmHg 85%
    Mehr zeigen